Terminal Aerodrome Forecast
Issued by NWS

Home | Current Version | Previous Version | Graphics & Text | Print | Product List | Glossary On
Versions: 1 2 3 4 5 6 7 8 9 10 11 12 13 14 15 16 17
000
FTUS43 KTOP 131200 AAA
TAFFOE
TAF AMD
KFOE 131217Z 1312/1412 33003KT 4SM MIFG SKC
      TEMPO 1312/1314 1/4SM FG VV002
     FM131500 14008KT P6SM SKC
     FM140100 14003KT P6SM BKN250=

USA.gov is the U.S. government's official web portal to all federal, state and local government web resources and services.